North Las Vegas, NV

10:19 AM PDT on October 15, 2018 (GMT -0700)
North Las Vegas

Weather History for KVGT - May, 2018

Change the Weather History Date:

Wednesday, May 16, 2018

  Actual Average Record
Temperature  
Mean Temperature 78 °F 76 °F  
Max Temperature 91 °F 88 °F 100 °F (2014)
Min Temperature 64 °F 65 °F 50 °F (2011)
Degree Days  
Heating Degree Days 0 0  
Month to date heating degree days 10 0  
Since 1 July heating degree days 1482 2038  
Cooling Degree Days 13 11  
Month to date cooling degree days 187 144  
Year to date cooling degree days 408 271  
Growing Degree Days 27 (Base 50)    
Moisture  
Dew Point 18 °F    
Average Humidity 17    
Maximum Humidity 31    
Minimum Humidity 3    
Precipitation  
Precipitation 0.00 in 0.01 in 0.01 in (1952)
Month to date precipitation 0.18 0.08  
Year to date precipitation 1.81 2.54  
Sea Level Pressure  
Sea Level Pressure 29.82 in    
Wind  
Wind Speed 11 mph (WSW)    
Max Wind Speed 28 mph    
Max Gust Speed 35 mph    
Visibility 10 miles    
Events      
T = Trace of Precipitation, MM = Missing Value Source: NWS Daily Summary

Daily Weather History Graph

Daily Weather History Graph

Search for Another Location

Airport or City:

Astronomy

May. 16, 2018 Rise Set
Actual Time 5:33 AM PDT 7:41 PM PDT
Civil Twilight 5:05 AM PDT 8:09 PM PDT
Nautical Twilight 4:29 AM PDT 8:45 PM PDT
Astronomical Twilight 3:52 AM PDT 9:23 PM PDT
Moon 6:48 AM PDT (5/16) 9:14 PM PDT (5/16)
Length of Visible Light 15h 04m
Length of Day
14h 07m
New Moon, 2% of the Moon is Illuminated
May 16
New Moon
May 21
First Quarter
May 29
Full
Jun 6
Last Quarter
Jun 13
New

Hourly Weather History & Observations

Time (PDT) Temp. Dew Point Humidity Pressure Visibility Wind Dir Wind Speed Gust Speed Precip Events Conditions
12:53 AM 75.0 °F 30.9 °F 20% 29.86 in 10.0 mi Calm Calm - N/A   Clear
1:53 AM 71.1 °F 33.1 °F 25% 29.86 in 10.0 mi Calm Calm - N/A   Clear
2:53 AM 69.1 °F 33.1 °F 26% 29.86 in 10.0 mi Calm Calm - N/A   Clear
3:53 AM 66.9 °F 34.0 °F 30% 29.86 in 10.0 mi North 4.6 mph - N/A   Clear
4:53 AM 66.9 °F 30.9 °F 26% 29.86 in 10.0 mi NW 5.8 mph - N/A   Clear
5:53 AM 64.0 °F 33.1 °F 31% 29.86 in 10.0 mi North 4.6 mph - N/A   Clear
6:53 AM 69.1 °F 32.0 °F 25% 29.88 in 10.0 mi NNW 3.5 mph - N/A   Clear
7:53 AM 73.9 °F 28.0 °F 18% 29.88 in 10.0 mi Calm Calm - N/A   Clear
8:53 AM 77.0 °F 26.1 °F 15% 29.88 in 10.0 mi East 6.9 mph - N/A   Clear
9:53 AM 81.0 °F 24.1 °F 12% 29.88 in 10.0 mi Variable 4.6 mph - N/A   Clear
10:53 AM 84.0 °F 23.0 °F 11% 29.86 in 10.0 mi East 8.1 mph - N/A   Clear
11:53 AM 88.0 °F 14.0 °F 6% 29.84 in 10.0 mi SSW 20.7 mph 32.2 mph N/A   Clear
12:53 PM 89.1 °F 12.0 °F 6% 29.83 in 10.0 mi SW 19.6 mph 28.8 mph N/A   Clear
1:53 PM 90.0 °F 1.9 °F 4% 29.82 in 10.0 mi SW 19.6 mph 27.6 mph N/A   Clear
2:53 PM 90.0 °F 3.9 °F 4% 29.80 in 10.0 mi WSW 18.4 mph 31.1 mph N/A   Clear
3:53 PM 90.0 °F 7.0 °F 4% 29.78 in 10.0 mi SW 20.7 mph 26.5 mph N/A   Clear
4:53 PM 90.0 °F 5.0 °F 4% 29.77 in 10.0 mi WSW 19.6 mph 28.8 mph N/A   Clear
5:53 PM 88.0 °F 5.0 °F 4% 29.76 in 10.0 mi WSW 18.4 mph 28.8 mph N/A   Clear
6:53 PM 86.0 °F 6.1 °F 5% 29.75 in 10.0 mi WSW 18.4 mph 25.3 mph N/A   Clear
7:53 PM 84.0 °F 9.0 °F 6% 29.75 in 10.0 mi SW 13.8 mph - N/A   Clear
8:53 PM 82.0 °F 10.9 °F 7% 29.75 in 10.0 mi West 8.1 mph - N/A   Clear
9:53 PM 81.0 °F 10.0 °F 7% 29.76 in 10.0 mi WSW 5.8 mph - N/A   Clear
10:53 PM 79.0 °F 15.1 °F 9% 29.76 in 10.0 mi WSW 11.5 mph - N/A   Clear
11:53 PM 79.0 °F 15.1 °F 9% 29.75 in 10.0 mi West 20.7 mph - N/A   Clear